Location: Brede
(50.9167°N, 0.6000°E)
Time: 16:02:25
(UTC+00:00)

USA 267 - Pass Details

Date: 08 August 2020
Orbit: 1101 x 1106 km, 123.0° (Epoch: 22 September)

Event Time Altitude Azimuth Distance (km) Brightness Sun altitude
Rises 01:31:12 0° 103° (ESE) 3,916 6.3 -20.3°
Reaches altitude 10° 01:33:41 10° 100° (E) 2,961 5.7 -20.2°
Maximum altitude 01:40:09 68° 20° (NNE) 1,183 3.6 -19.8°
Drops below altitude 10° 01:46:39 10° 299° (WNW) 2,970 5.6 -19.3°
Sets 01:49:09 0° 297° (WNW) 3,930 6.2 -19.1°
